Pineville, MO

4:45 PM CST on December 21, 2014 (GMT -0600)
Bentonville Municipal-Thaden | Change Station
CLOSE
Current Station
Airport
Location: Bentonville,
Elevation: 1296 ft
Nearby Weather Stations

Elev 1296 ft 36.34 °N, 94.22 °W | Updated 10 minutes ago

Overcast
Overcast
46 °F
Feels Like 42 °F
N
10
Wind Variable Wind from South
Gusts 16 mph

Today
High -- | Low -- °F
--% Chance of Precip.
Yesterday
High -- | Low -- °F
Precip. -- in
7:25 AM 5:05 PM
Waning Crescent, 0% visible
Pressure 29.89 in
Visibility 10.0 miles
Clouds Overcast 3400 ft
Windchill 42 °F
Dew Point 36 °F
Humidity 66%
Rainfall 0.00 in
Snow Depth Not available.
UV 0 out of 12
Pollen 3.70 out of 12
Air Quality Not available.
Flu Activity Not available.
METAR KVBT 212235Z AUTO 18009G14KT 10SM OVC034 08/02 A2989 RMK AO1

More Conditions Fewer Conditions

Pressure 29.89 in
Visibility 10.0 miles
Clouds Overcast 3400 ft
Windchill 42 °F
Dew Point 36 °F
Humidity 66%
Rainfall 0.00 in
Snow Depth Not available.
UV 0 out of 12
Pollen 3.70 out of 12
Air Quality Not available.
Flu Activity Not available.
METAR KVBT 212235Z AUTO 18009G14KT 10SM OVC034 08/02 A2989 RMK AO1

More Conditions Fewer Conditions

10-Day Weather Forecast

Almanac

Astronomy

Dec. 21, 2014 Rise Set
Actual Time
Civil Twilight
Nautical Twilight
Astronomical Twilight
Moon
Length of Visible Light
Length of Day
Tomorrow will be .
, % of the Moon is Illuminated

Today's Extremes

State Highs State Lows

Community

WunderPhotos

Upload Photos

1,779,499 photos uploaded!

WunderBlogs® & News

Nearby

Air Quality

  Air Quality AQ Index Pollutant
Not available.

Snow Depth

Station Depth Elevation

Earthquake Activity

City Distance Mag. Time & Date
Minimum magnitude displayed is 2.5.

Coastal Water Temperatures

Place Temperature

Nearby Weather Stations